Météo par heure à Abakumovo

Ce jour, 26 Novembre, Jeudi

Heure Température Précipitation Vent Pression Humidité
00:00 -1°C° 0 mm 1 m/s 746 mmHg 95%
01:00 -1°C° 0 mm 1 m/s 746 mmHg 94%
02:00 -1°C° 0 mm 1 m/s 746 mmHg 94%
03:00 -3°C° 0 mm 2 m/s 745 mmHg 90%
04:00 -3°C° 0 mm 2 m/s 745 mmHg 86%
05:00 -2°C° 0 mm 3 m/s 744 mmHg 81%
06:00 -2°C° 0.1 mm 3 m/s 744 mmHg 82%
07:00 -3°C° 0.1 mm 4 m/s 744 mmHg 83%
08:00 -3°C° 0.1 mm 4 m/s 744 mmHg 84%
09:00 -3°C° 0.5 mm 4 m/s 743 mmHg 87%
10:00 -3°C° 0.5 mm 4 m/s 742 mmHg 90%
11:00 -3°C° 0.5 mm 4 m/s 741 mmHg 93%
12:00 -2°C° 0.5 mm 4 m/s 741 mmHg 93%
13:00 -2°C° 0.5 mm 4 m/s 741 mmHg 94%
14:00 0°C° 0.5 mm 3 m/s 740 mmHg 95%
15:00 0°C° 0.8 mm 3 m/s 740 mmHg 95%
16:00 +1°C° 0.8 mm 3 m/s 739 mmHg 95%
17:00 +2°C° 0.8 mm 3 m/s 739 mmHg 96%
18:00 +2°C° 0.2 mm 3 m/s 738 mmHg 96%
19:00 +2°C° 0.2 mm 3 m/s 738 mmHg 96%
20:00 +2°C° 0.2 mm 3 m/s 738 mmHg 95%
21:00 +2°C° 0.2 mm 3 m/s 737 mmHg 95%
22:00 +1°C° 0.2 mm 3 m/s 737 mmHg 95%
23:00 +1°C° 0.2 mm 3 m/s 737 mmHg 95%

Demain, 27 Novembre, Vendredi

Heure Température Précipitation Vent Pression Humidité
00:00 +1°C° 0.7 mm 3 m/s 736 mmHg 95%
01:00 +1°C° 0.7 mm 3 m/s 736 mmHg 96%
02:00 +1°C° 0.7 mm 3 m/s 736 mmHg 96%
03:00 +1°C° 0.9 mm 3 m/s 736 mmHg 97%
04:00 +2°C° 0.9 mm 2 m/s 735 mmHg 97%
05:00 +1°C° 0.9 mm 2 m/s 735 mmHg 98%
06:00 +2°C° 0.5 mm 2 m/s 735 mmHg 98%
07:00 +2°C° 0.5 mm 2 m/s 735 mmHg 98%
08:00 +2°C° 0.5 mm 2 m/s 736 mmHg 98%
09:00 +3°C° 0.1 mm 1 m/s 736 mmHg 98%
10:00 +3°C° 0.1 mm 1 m/s 736 mmHg 98%
11:00 +3°C° 0.1 mm 1 m/s 736 mmHg 98%
12:00 +3°C° 0 mm 1 m/s 736 mmHg 98%
13:00 +2°C° 0 mm 0 m/s 737 mmHg 98%
14:00 +2°C° 0 mm 0 m/s 737 mmHg 98%
15:00 +2°C° 0.1 mm 0 m/s 737 mmHg 98%
16:00 +3°C° 0.1 mm 1 m/s 738 mmHg 98%
17:00 +3°C° 0.1 mm 1 m/s 738 mmHg 98%
18:00 +3°C° 0.1 mm 1 m/s 738 mmHg 98%
19:00 +3°C° 0.1 mm 1 m/s 739 mmHg 98%
20:00 +2°C° 0.1 mm 2 m/s 739 mmHg 98%
21:00 +2°C° 0.2 mm 2 m/s 740 mmHg 97%
22:00 0°C° 0.2 mm 3 m/s 741 mmHg 97%
23:00 0°C° 0.2 mm 3 m/s 741 mmHg 97%

Après-demain, 28 Novembre, Samedi

Heure Température Précipitation Vent Pression Humidité
00:00 0°C° 0.4 mm 3 m/s 742 mmHg 97%
01:00 -1°C° 0.4 mm 3 m/s 742 mmHg 97%
02:00 -1°C° 0.4 mm 3 m/s 743 mmHg 97%
03:00 -1°C° 0.1 mm 3 m/s 743 mmHg 96%
04:00 -1°C° 0.1 mm 3 m/s 744 mmHg 95%
05:00 -1°C° 0.1 mm 3 m/s 744 mmHg 95%
06:00 -1°C° 0.3 mm 3 m/s 745 mmHg 95%
07:00 -2°C° 0.3 mm 3 m/s 745 mmHg 94%
08:00 -2°C° 0.3 mm 3 m/s 746 mmHg 94%
09:00 -2°C° 0.1 mm 3 m/s 747 mmHg 93%
10:00 -2°C° 0.1 mm 3 m/s 747 mmHg 91%
11:00 -2°C° 0.1 mm 3 m/s 748 mmHg 90%
12:00 -2°C° 0.1 mm 3 m/s 748 mmHg 90%
13:00 -4°C° 0.1 mm 3 m/s 749 mmHg 91%
14:00 -4°C° 0.1 mm 3 m/s 749 mmHg 91%
15:00 -4°C° 0.1 mm 3 m/s 749 mmHg 91%
16:00 -5°C° 0.1 mm 3 m/s 750 mmHg 92%
17:00 -5°C° 0.1 mm 3 m/s 750 mmHg 93%
18:00 -5°C° 0.1 mm 3 m/s 750 mmHg 92%
19:00 -5°C° 0.1 mm 3 m/s 751 mmHg 92%
20:00 -5°C° 0.1 mm 3 m/s 751 mmHg 92%
21:00 -5°C° 0.1 mm 3 m/s 752 mmHg 92%
22:00 -4°C° 0.1 mm 2 m/s 752 mmHg 93%
23:00 -4°C° 0.1 mm 2 m/s 752 mmHg 93%

29 Novembre, Dimanche

Heure Température Précipitation Vent Pression Humidité
00:00 -4°C° 0.1 mm 2 m/s 753 mmHg 93%
01:00 -4°C° 0.1 mm 2 m/s 753 mmHg 93%
02:00 -4°C° 0.1 mm 2 m/s 753 mmHg 93%
03:00 -4°C° 0 mm 2 m/s 753 mmHg 94%
04:00 -4°C° 0 mm 2 m/s 754 mmHg 94%
05:00 -4°C° 0 mm 2 m/s 754 mmHg 94%
06:00 -4°C° 0.1 mm 2 m/s 754 mmHg 94%
07:00 -3°C° 0.1 mm 2 m/s 755 mmHg 94%
08:00 -3°C° 0.1 mm 2 m/s 755 mmHg 94%
09:00 -3°C° 0 mm 2 m/s 755 mmHg 93%
10:00 -2°C° 0 mm 2 m/s 755 mmHg 92%
11:00 -2°C° 0 mm 2 m/s 756 mmHg 92%
12:00 -2°C° 0 mm 2 m/s 755 mmHg 91%
13:00 -2°C° 0 mm 2 m/s 755 mmHg 91%
14:00 -2°C° 0 mm 2 m/s 755 mmHg 90%
15:00 -2°C° 0 mm 2 m/s 755 mmHg 91%
16:00 -2°C° 0 mm 2 m/s 755 mmHg 92%
17:00 -2°C° 0 mm 2 m/s 755 mmHg 93%
18:00 -2°C° 0 mm 3 m/s 755 mmHg 93%
19:00 -2°C° 0 mm 3 m/s 755 mmHg 93%
20:00 -2°C° 0 mm 3 m/s 755 mmHg 93%
21:00 -2°C° 0.1 mm 3 m/s 754 mmHg 93%
22:00 -2°C° 0.1 mm 3 m/s 754 mmHg 94%
23:00 -2°C° 0.1 mm 3 m/s 754 mmHg 95%

30 Novembre, Lundi

Heure Température Précipitation Vent Pression Humidité
00:00 -2°C° 0.1 mm 3 m/s 754 mmHg 95%
01:00 -1°C° 0.1 mm 3 m/s 753 mmHg 95%
02:00 -1°C° 0.1 mm 3 m/s 753 mmHg 95%
03:00 -1°C° 0 mm 3 m/s 752 mmHg 96%
04:00 -1°C° 0 mm 3 m/s 752 mmHg 97%
05:00 -1°C° 0 mm 3 m/s 752 mmHg 97%
06:00 0°C° 0 mm 3 m/s 751 mmHg 97%
07:00 0°C° 0 mm 3 m/s 751 mmHg 97%
08:00 0°C° 0 mm 3 m/s 751 mmHg 97%
09:00 0°C° 0.1 mm 3 m/s 751 mmHg 97%
10:00 +1°C° 0.1 mm 3 m/s 750 mmHg 97%
11:00 +1°C° 0.1 mm 3 m/s 750 mmHg 97%
12:00 +1°C° 0.2 mm 3 m/s 749 mmHg 97%
13:00 +1°C° 0.2 mm 3 m/s 749 mmHg 97%
14:00 +1°C° 0.2 mm 3 m/s 748 mmHg 97%
15:00 +1°C° 0.4 mm 3 m/s 748 mmHg 97%
16:00 +1°C° 0.4 mm 3 m/s 748 mmHg 97%
17:00 +1°C° 0.4 mm 3 m/s 747 mmHg 97%
18:00 +1°C° 0.1 mm 3 m/s 747 mmHg 96%
19:00 +1°C° 0.1 mm 2 m/s 747 mmHg 95%
20:00 +1°C° 0.1 mm 2 m/s 746 mmHg 93%
21:00 -1°C° 0.1 mm 2 m/s 746 mmHg 94%
22:00 -1°C° 0.1 mm 3 m/s 746 mmHg 95%
23:00 -1°C° 0.1 mm 3 m/s 746 mmHg 96%

1 Décembre, Mardi

Heure Température Précipitation Vent Pression Humidité
00:00 -1°C° 0.1 mm 3 m/s 746 mmHg 95%
01:00 -2°C° 0.1 mm 3 m/s 746 mmHg 94%
02:00 -3°C° 0.1 mm 4 m/s 746 mmHg 93%
03:00 -3°C° 0.1 mm 4 m/s 747 mmHg 93%
04:00 -3°C° 0.1 mm 4 m/s 747 mmHg 92%
05:00 -3°C° 0.1 mm 4 m/s 747 mmHg 92%
06:00 -3°C° 0 mm 4 m/s 747 mmHg 91%
07:00 -2°C° 0 mm 4 m/s 748 mmHg 90%
08:00 -2°C° 0 mm 4 m/s 748 mmHg 89%
09:00 -2°C° 0 mm 4 m/s 748 mmHg 86%
10:00 -2°C° 0 mm 4 m/s 749 mmHg 83%
11:00 -2°C° 0 mm 4 m/s 749 mmHg 80%
12:00 -3°C° 0 mm 4 m/s 749 mmHg 80%
13:00 -2°C° 0 mm 3 m/s 749 mmHg 80%
14:00 -2°C° 0 mm 3 m/s 749 mmHg 81%
15:00 -2°C° 0 mm 3 m/s 749 mmHg 82%
16:00 -4°C° 0 mm 3 m/s 749 mmHg 84%
17:00 -4°C° 0 mm 3 m/s 749 mmHg 86%
18:00 -4°C° 0 mm 3 m/s 749 mmHg 86%
19:00 -4°C° 0 mm 4 m/s 749 mmHg 86%
20:00 -4°C° 0 mm 4 m/s 749 mmHg 86%
21:00 -4°C° 0 mm 4 m/s 749 mmHg 86%
22:00 -4°C° 0 mm 4 m/s 749 mmHg 87%
23:00 -4°C° 0 mm 4 m/s 748 mmHg 88%
Voir plus

Nous avons besoin de votre consentement

Meteoprog et ses fournisseurs de services peuvent stocker et accéder à des données personnelles telles que des cookies, des identifiants d'appareils ou d'autres technologies similaires sur votre appareil et traiter ces données pour personnaliser le contenu et les publicités, ainsi que pour fournir des fonctionnalités de médias sociaux et analyser le trafic.

  • Stocker et/ou accéder à des informations sur votre appareil

    Des cookies, des identifiants d'appareils ou d'autres informations peuvent être stockés ou accessibles sur votre appareil aux fins indiquées ci-dessus.

  • Annonces et contenus personnalisés, mesure des annonces et des contenus, connaissance de l'audience et développement de produits

    Les annonces et le contenu peuvent être personnalisés en fonction d'un profil. D'autres données peuvent être ajoutées pour mieux personnaliser les annonces et le contenu. Les performances des publicités et du contenu peuvent être mesurées. Il est possible d'obtenir des informations sur le public qui a vu les publicités et le contenu. Ces données peuvent être utilisées pour développer ou améliorer l'expérience de l'utilisateur, les systèmes et les logiciels.

En cliquant sur "J'accepte", vous autorisez l'utilisation de cookies, des identifiants d'appareils, des balises web ou d'autres technologies similaires. Vos paramètres peuvent être modifiés dans le navigateur de votre appareil.

Dans certains cas, des intérêts légitimes peuvent être invoqués plutôt qu'un consentement. Vous pouvez en savoir plus à ce sujet dans notre Politique de confidentialité et de cookies.